sat.trackr.live / text

‹ back to catalog

STARLINK-4402

NORAD 53509 · 2022-099AW

PAYLOAD ACTIVE UNKNOWN

§ Identity

Operator
Country
US
Launch date
2022-08-12
Launch site
AFWTR
Launch vehicle
Mass (kg)
RCS (m²)

Purposes: comms

External: N2YO · Heavens-Above · Gunter

§ Orbital elements

Epoch: 2026-09-20T04:00:03.000096Z

Period
91.44 min
Inclination
97.6044°
Eccentricity
0.0001425
Mean motion
15.74767905 rev/d
Perigee alt
344.3 km
Apogee alt
346.2 km
Semi-major
6,723.4 km
B*
8.8002e-4
RAAN
33.6959°
Arg perigee
73.1314°
Mean anomaly
8.8566°
Rev number
595

§ Raw data

STARLINK-44021 53509U 22099AW  26263.16670139  .00130763  00000+0  88002-3 0  99962 53509  97.6044  33.6959 0001425  73.1314   8.8566 15.74767905  5953

JSON: /api/v1/satellites/53509 · /tle

For live sub-satellite position, see the globe view (requires WebGL).

§ Visibility from observer

Set your observer location to see the next 7 days of passes ≥ 10°. The values pass through the URL so the page stays shareable.

No JS? Fill the form by hand. The geolocation button needs JavaScript.